Regional Weather Roundup
Issued by NWS Portland, ME

Home | Current Version | Previous Version | Text Only | Print | Product List | Glossary On
Versions: 1 2 3 4 5 6 7 8 9 10 11 12 13 14 15 16 17 18 19 20 21 22 23 24 25 26 27 28 29 30 31 32 33 34 35 36 37 38 39 40 41 42 43 44 45 46 47 48 49 50
000
ASUS41 KGYX 301010
RWRGYX
WEATHER ROUNDUP FOR MAINE AND NEW HAMPSHIRE
NATIONAL WEATHER SERVICE GRAY ME
600 AM EDT FRI SEP 30 2016

MEZ002-005-006-010-012-015-018-020-021-024-026-027-029-301100-
MAINE

CITY           SKY/WX    TMP DP  RH WIND       PRES   REMARKS
PORTLAND       PTCLDY    45  39  79 CALM      30.53F
SANFORD        PTCLDY    43  40  89 N5        30.52S
BAR HARBOR     PTCLDY   N/A N/A N/A CALM      30.56R
WISCASSET      PTCLDY    44  39  82 CALM      30.55S
ROCKLAND       MOCLDY    49  46  90 NE5       30.54R
FRYEBURG       CLOUDY    36  36 100 W5        30.55S FOG
LEWISTONAUBURN PTCLDY    39  37  92 CALM      30.54F
AUGUSTA        CLOUDY    41  39  93 NW5       30.56R
WATERVILLE     PTCLDY    38  37  97 CALM      30.53R
BANGOR         CLOUDY    34  33  96 CALM      30.56R
GREENVILLE       N/A     39  39 100 NE3       30.52S
MILLINOCKET    CLOUDY    32  31  96 CALM      30.58R
HOULTON        CLOUDY    29  28  96 CALM      30.54S
PRESQUE ISLE   CLOUDY    28  27  96 CALM      30.57R
FRENCHVILLE    CLOUDY    30  27  88 NW7       30.55R FOG
CARIBOU        FOG       31  30  96 CALM      30.56R VSB 1/2
$$

NHZ002-005-008-009-011-012-014-301100-
NEW HAMPSHIRE

CITY           SKY/WX    TMP DP  RH WIND       PRES   REMARKS
PORTSMOUTH     MOCLDY    48  43  83 NE7       30.48F
ROCHESTER      PTCLDY    44  39  82 N5        30.50F
NASHUA         CLOUDY    48  45  89 N6        30.49F
MANCHESTER     MOCLDY    47  42  83 N7        30.48F
CONCORD        CLOUDY    44  40  85 N3        30.51S
LACONIA        CLOUDY    44  41  89 CALM      30.53R
PLYMOUTH       FAIR      38  38  99 CALM      30.52S
BERLIN         FOG       35  33  92 CALM      30.54R VSB 1/4
WHITEFIELD     PTCLDY    42  35  76 CALM      30.51R
JAFFREY        CLOUDY    47  42  83 VRB3      30.49R
KEENE          PTCLDY    46  44  93 CALM      30.49S
LEBANON        CLOUDY    41  40  96 CALM      30.51S
MT WASHINGTON  PTCLDY    48 -11   8 SE12        N/A
$$

VTZ005-007-008-301100-
VERMONT

CITY           SKY/WX    TMP DP  RH WIND       PRES   REMARKS
ST JOHNSBURY     N/A     42  40  92 MISG      30.51S
MONTPELIER     CLOUDY    42  39  89 CALM      30.53F
BURLINGTON     CLOUDY    54  40  59 SE3       30.47F
$$

MAZ007-012-024-CTZ003-RIZ002-NYZ038-NYZ072-301100-
SOUTHERN NEW ENGLAND AND NY

CITY           SKY/WX    TMP DP  RH WIND       PRES   REMARKS
BOSTON         CLOUDY    58  52  80 NE17      30.45S
WORCESTER      CLOUDY    49  45  86 NE10      30.44R
NANTUCKET      CLOUDY    61  53  75 E18G28    30.36S
PROVIDENCE     CLOUDY    57  50  77 NE12      30.42R
HARTFORD       CLOUDY    54  46  74 N12       30.43S
ALBANY         CLOUDY    54  42  64 NE6       30.44S
NEW YORK CITY  CLOUDY    61  54  77 NE26G40   30.29F
$$

ANZ081-ANZ082-ANZ150-NHZ014-MEZ023>029-301100-
COASTAL MARINE OBSERVATIONS

STATION/POSITION TIME  TEMP    WIND        PRES    WAVE
                       AIR SEA DIR/SP/G            HT/PER
                 (UTC) (F)     (DEG/KT/KT) (MB)    (FT/S)
MOUNT DESERT ROC 1000   54      50/  9/ 10 1033.8R
MATINICUS ROCK   1000   53      60/ 14/ 15 1033.2R
ISLE OF SHOALS   1000   56      60/ 21/ 23 1031.5F
JEFFREYS LEDGE   0938      61                N/A     7/ 8
CASHES LEDGE BUO 0950   55 58   80/ 16/ 19 1032.7S   7/10
GEORGES BANK BUO 0950   65 66              1027.6R   8/ 8
$$

.............KEY..............
   WCI - WIND CHILL
   TC  - TEMPERATURE IN CELSIUS
   VSB - VISIBILITY IN MILES
   HX  - HEAT INDEX
   FAIR- INDICATES FEW OR NO CLOUDS BELOW 12,000 FT, WITH NO
         SIGNIFICANT WEATHER AND/OR OBSTRUCTIONS TO VISIBILITY.






USA.gov is the U.S. government's official web portal to all federal, state and local government web resources and services.